TimeMST,TemperatureF,Dew PointF,Humidity,Sea Level PressureIn,VisibilityMPH,Wind Direction,Wind SpeedMPH,Gust SpeedMPH,PrecipitationIn,Events,Conditions,WindDirDegrees,DateUTC
12:15 AM,53.6,35.6,51,29.96,10.0,ESE,8.1,-,N/A,,Clear,120,2014-03-11 07:15:00
12:35 AM,53.6,35.6,51,29.97,10.0,ESE,8.1,-,N/A,,Clear,120,2014-03-11 07:35:00
12:55 AM,53.6,35.6,51,29.97,10.0,ESE,6.9,-,N/A,,Clear,110,2014-03-11 07:55:00
1:15 AM,55.4,35.6,47,29.97,10.0,ESE,6.9,-,N/A,,Clear,110,2014-03-11 08:15:00
1:35 AM,53.6,35.6,51,29.97,10.0,ESE,8.1,-,N/A,,Clear,120,2014-03-11 08:35:00
1:55 AM,53.6,33.8,47,29.96,10.0,ESE,6.9,-,N/A,,Clear,110,2014-03-11 08:55:00
2:15 AM,53.6,33.8,47,29.96,10.0,ESE,5.8,-,N/A,,Clear,110,2014-03-11 09:15:00
2:35 AM,51.8,33.8,50,29.96,10.0,ESE,8.1,-,N/A,,Clear,120,2014-03-11 09:35:00
2:55 AM,51.8,33.8,50,29.96,10.0,ESE,6.9,-,N/A,,Clear,110,2014-03-11 09:55:00
3:15 AM,51.8,33.8,50,29.95,10.0,East,5.8,-,N/A,,Clear,90,2014-03-11 10:15:00
3:35 AM,53.6,33.8,47,29.95,10.0,East,4.6,-,N/A,,Clear,80,2014-03-11 10:35:00
3:55 AM,53.6,32.0,44,29.95,10.0,East,4.6,-,N/A,,Clear,80,2014-03-11 10:55:00
4:15 AM,53.6,32.0,44,29.96,10.0,East,6.9,-,N/A,,Clear,100,2014-03-11 11:15:00
4:35 AM,51.8,33.8,50,29.96,10.0,ESE,6.9,-,N/A,,Clear,110,2014-03-11 11:35:00
4:55 AM,51.8,33.8,50,29.96,10.0,SE,9.2,-,N/A,,Clear,130,2014-03-11 11:55:00
5:15 AM,51.8,33.8,50,29.96,10.0,ESE,8.1,-,N/A,,Clear,120,2014-03-11 12:15:00
5:35 AM,50.0,33.8,54,29.96,10.0,SE,9.2,-,N/A,,Clear,130,2014-03-11 12:35:00
5:45 AM,50.0,35.6,58,29.97,10.0,SSE,9.2,-,N/A,,Clear,150,2014-03-11 12:45:00
10:35 AM,69.8,39.2,33,30.02,10.0,Variable,3.5,-,N/A,,Clear,0,2014-03-11 17:35:00
10:55 AM,71.6,39.2,31,30.01,10.0,Calm,Calm,-,N/A,,Clear,0,2014-03-11 17:55:00
11:15 AM,71.6,37.4,29,30.01,10.0,Calm,Calm,-,N/A,,Clear,0,2014-03-11 18:15:00
11:35 AM,71.6,37.4,29,30.00,10.0,Variable,5.8,-,N/A,,Clear,0,2014-03-11 18:35:00
11:55 AM,73.4,35.6,25,29.99,10.0,Calm,Calm,-,N/A,,Clear,0,2014-03-11 18:55:00
12:15 PM,73.4,32.0,22,29.98,10.0,Variable,4.6,16.1,N/A,,Clear,0,2014-03-11 19:15:00
12:35 PM,73.4,32.0,22,29.97,10.0,Variable,4.6,-,N/A,,Clear,0,2014-03-11 19:35:00
12:55 PM,75.2,33.8,22,29.97,10.0,Variable,6.9,-,N/A,,Clear,0,2014-03-11 19:55:00
1:15 PM,75.2,33.8,22,29.96,10.0,Variable,4.6,-,N/A,,Clear,0,2014-03-11 20:15:00
1:35 PM,75.2,35.6,24,29.94,10.0,SW,9.2,-,N/A,,Clear,230,2014-03-11 20:35:00
1:55 PM,75.2,33.8,22,29.94,10.0,West,9.2,16.1,N/A,,Clear,270,2014-03-11 20:55:00
2:15 PM,75.2,35.6,24,29.93,10.0,West,9.2,15.0,N/A,,Clear,270,2014-03-11 21:15:00
4:55 PM,77.0,32.0,19,29.90,10.0,WNW,8.1,-,N/A,,Clear,290,2014-03-11 23:55:00
5:15 PM,77.0,32.0,19,29.90,10.0,WNW,11.5,-,N/A,,Clear,300,2014-03-12 00:15:00
5:35 PM,75.2,33.8,22,29.90,10.0,WNW,6.9,13.8,N/A,,Clear,290,2014-03-12 00:35:00
5:55 PM,75.2,33.8,22,29.91,10.0,WNW,5.8,-,N/A,,Clear,300,2014-03-12 00:55:00
6:15 PM,73.4,35.6,25,29.91,10.0,NW,6.9,-,N/A,,Clear,320,2014-03-12 01:15:00
6:35 PM,71.6,35.6,27,29.92,10.0,NNW,5.8,-,N/A,,Clear,330,2014-03-12 01:35:00
6:55 PM,69.8,35.6,28,29.92,10.0,NNW,6.9,-,N/A,,Clear,330,2014-03-12 01:55:00
7:15 PM,69.8,35.6,28,29.92,10.0,NW,5.8,-,N/A,,Clear,320,2014-03-12 02:15:00
7:35 PM,68.0,33.8,28,29.93,10.0,NW,4.6,-,N/A,,Clear,320,2014-03-12 02:35:00
7:55 PM,68.0,33.8,28,29.93,10.0,NW,3.5,-,N/A,,Clear,310,2014-03-12 02:55:00
8:15 PM,68.0,33.8,28,29.93,10.0,Calm,Calm,-,N/A,,Clear,0,2014-03-12 03:15:00
8:35 PM,64.4,37.4,37,29.94,10.0,Calm,Calm,-,N/A,,Clear,0,2014-03-12 03:35:00
8:55 PM,62.6,37.4,39,29.94,10.0,Calm,Calm,-,N/A,,Clear,0,2014-03-12 03:55:00
9:15 PM,64.4,35.6,34,29.94,10.0,Calm,Calm,-,N/A,,Clear,0,2014-03-12 04:15:00
9:35 PM,62.6,35.6,37,29.95,10.0,ESE,6.9,-,N/A,,Clear,110,2014-03-12 04:35:00
9:45 PM,62.6,35.6,37,29.95,10.0,ESE,5.8,-,N/A,,Clear,120,2014-03-12 04:45:00
10:15 PM,60.8,35.6,39,29.96,10.0,ESE,5.8,-,N/A,,Clear,110,2014-03-12 05:15:00
10:35 PM,59.0,37.4,45,29.96,10.0,ESE,6.9,-,N/A,,Clear,120,2014-03-12 05:35:00
10:55 PM,62.6,33.8,34,29.96,10.0,Calm,Calm,-,N/A,,Clear,0,2014-03-12 05:55:00
11:10 PM,57.2,37.4,48,29.96,10.0,ESE,3.5,-,N/A,,Clear,120,2014-03-12 06:10:00
11:35 PM,57.2,37.4,48,29.97,10.0,SE,4.6,-,N/A,,Clear,130,2014-03-12 06:35:00
11:40 PM,55.4,37.4,51,29.97,10.0,ESE,5.8,-,N/A,,Clear,120,2014-03-12 06:40:00